Time,TemperatureF,DewpointF,PressureIn,WindDirection,WindDirectionDegrees,WindSpeedMPH,WindSpeedGustMPH,Humidity,HourlyPrecipIn,Conditions,Clouds,dailyrainin,SolarRadiationWatts/m^2,SoftwareType,DateUTC
2013-03-14 00:12:00,15.0,8.0,-100.00,WNW,297,3.0,6.0,74,0.00,,,0.00,0.000000,,2013-03-14 04:12:00,
2013-03-14 00:32:00,15.0,8.0,-100.00,WNW,297,3.0,6.0,74,0.00,,,0.00,0.000000,,2013-03-14 04:32:00,
2013-03-14 00:42:00,15.0,8.0,-100.00,WNW,297,3.0,6.0,74,0.00,,,0.00,0.000000,,2013-03-14 04:42:00,
2013-03-14 00:52:00,15.0,8.0,-100.00,WNW,297,3.0,6.0,74,0.00,,,0.00,0.000000,,2013-03-14 04:52:00,
2013-03-14 01:02:00,15.0,8.0,-100.00,WNW,297,3.0,6.0,74,0.00,,,0.00,0.000000,,2013-03-14 05:02:00,
2013-03-14 01:12:00,14.0,7.0,-100.00,WNW,300,3.0,7.0,73,0.00,,,0.00,0.000000,,2013-03-14 05:12:00,
2013-03-14 01:33:00,14.0,7.0,-100.00,WNW,300,3.0,7.0,73,0.00,,,0.00,0.000000,,2013-03-14 05:33:00,
2013-03-14 01:42:00,14.0,7.0,-100.00,WNW,300,3.0,7.0,73,0.00,,,0.00,0.000000,,2013-03-14 05:42:00,
2013-03-14 01:53:00,14.0,7.0,-100.00,WNW,300,3.0,7.0,73,0.00,,,0.00,0.000000,,2013-03-14 05:53:00,
2013-03-14 02:02:00,14.0,7.0,-100.00,WNW,300,3.0,7.0,73,0.00,,,0.00,0.000000,,2013-03-14 06:02:00,
2013-03-14 02:12:00,13.0,6.0,-100.00,WNW,292,4.0,8.0,74,0.00,,,0.00,0.000000,,2013-03-14 06:12:00,
2013-03-14 02:33:00,13.0,6.0,-100.00,WNW,292,4.0,8.0,74,0.00,,,0.00,0.000000,,2013-03-14 06:33:00,
2013-03-14 02:42:00,13.0,6.0,-100.00,WNW,292,4.0,8.0,74,0.00,,,0.00,0.000000,,2013-03-14 06:42:00,
2013-03-14 02:52:00,13.0,6.0,-100.00,WNW,292,4.0,8.0,74,0.00,,,0.00,0.000000,,2013-03-14 06:52:00,
2013-03-14 03:02:00,13.0,6.0,-100.00,WNW,292,4.0,8.0,74,0.00,,,0.00,0.000000,,2013-03-14 07:02:00,
2013-03-14 03:12:00,12.0,5.0,-100.00,West,274,4.0,7.0,73,0.00,,,0.00,0.000000,,2013-03-14 07:12:00,
2013-03-14 03:32:00,12.0,5.0,-100.00,West,274,4.0,7.0,73,0.00,,,0.00,0.000000,,2013-03-14 07:32:00,
2013-03-14 03:43:00,12.0,5.0,-100.00,West,274,4.0,7.0,73,0.00,,,0.00,0.000000,,2013-03-14 07:43:00,
2013-03-14 03:52:00,12.0,5.0,-100.00,West,274,4.0,7.0,73,0.00,,,0.00,0.000000,,2013-03-14 07:52:00,
2013-03-14 04:02:00,12.0,5.0,-100.00,West,274,4.0,7.0,73,0.00,,,0.00,0.000000,,2013-03-14 08:02:00,
2013-03-14 04:12:00,12.0,6.0,-100.00,West,270,4.0,7.0,75,0.00,,,0.00,0.000000,,2013-03-14 08:12:00,
2013-03-14 04:42:00,12.0,6.0,-100.00,West,270,4.0,7.0,75,0.00,,,0.00,0.000000,,2013-03-14 08:42:00,
2013-03-14 04:52:00,12.0,6.0,-100.00,West,270,4.0,7.0,75,0.00,,,0.00,0.000000,,2013-03-14 08:52:00,
2013-03-14 05:01:00,12.0,6.0,-100.00,West,270,4.0,7.0,75,0.00,,,0.00,0.000000,,2013-03-14 09:01:00,
2013-03-14 05:12:00,10.0,5.0,-100.00,WNW,286,1.0,6.0,80,0.00,,,0.00,0.000000,,2013-03-14 09:12:00,
2013-03-14 05:32:00,10.0,5.0,-100.00,WNW,286,1.0,6.0,80,0.00,,,0.00,0.000000,,2013-03-14 09:32:00,
2013-03-14 05:42:00,10.0,5.0,-100.00,WNW,286,1.0,6.0,80,0.00,,,0.00,0.000000,,2013-03-14 09:42:00,
2013-03-14 05:52:00,10.0,5.0,-100.00,WNW,286,1.0,6.0,80,0.00,,,0.00,0.000000,,2013-03-14 09:52:00,
2013-03-14 06:12:00,10.0,6.0,-100.00,West,270,3.0,5.0,85,0.00,,,0.00,0.000000,,2013-03-14 10:12:00,
2013-03-14 06:32:00,10.0,6.0,-100.00,West,270,3.0,5.0,85,0.00,,,0.00,0.000000,,2013-03-14 10:32:00,
2013-03-14 06:42:00,10.0,6.0,-100.00,West,270,3.0,5.0,85,0.00,,,0.00,0.000000,,2013-03-14 10:42:00,
2013-03-14 06:52:00,10.0,6.0,-100.00,West,270,3.0,5.0,85,0.00,,,0.00,0.000000,,2013-03-14 10:52:00,
2013-03-14 07:02:00,10.0,6.0,-100.00,West,270,3.0,5.0,85,0.00,,,0.00,0.000000,,2013-03-14 11:02:00,
2013-03-14 07:12:00,8.0,5.0,-100.00,West,266,2.0,5.0,86,0.00,,,0.00,0.000000,,2013-03-14 11:12:00,
2013-03-14 07:33:00,8.0,5.0,-100.00,West,266,2.0,5.0,86,0.00,,,0.00,0.000000,,2013-03-14 11:33:00,
2013-03-14 07:42:00,8.0,5.0,-100.00,West,266,2.0,5.0,86,0.00,,,0.00,0.000000,,2013-03-14 11:42:00,
2013-03-14 07:53:00,8.0,5.0,-100.00,West,266,2.0,5.0,86,0.00,,,0.00,0.000000,,2013-03-14 11:53:00,
2013-03-14 08:02:00,8.0,5.0,-100.00,West,266,2.0,5.0,86,0.00,,,0.00,0.000000,,2013-03-14 12:02:00,
2013-03-14 08:12:00,8.0,4.0,-100.00,West,272,0.0,4.0,85,0.00,,,0.00,1.000000,,2013-03-14 12:12:00,
2013-03-14 08:33:00,8.0,4.0,-100.00,West,272,0.0,4.0,85,0.00,,,0.00,1.000000,,2013-03-14 12:33:00,
2013-03-14 08:43:00,8.0,4.0,-100.00,West,272,0.0,4.0,85,0.00,,,0.00,1.000000,,2013-03-14 12:43:00,
2013-03-14 08:52:00,8.0,4.0,-100.00,West,272,0.0,4.0,85,0.00,,,0.00,1.000000,,2013-03-14 12:52:00,
2013-03-14 09:02:00,8.0,4.0,-100.00,West,272,0.0,4.0,85,0.00,,,0.00,1.000000,,2013-03-14 13:02:00,
2013-03-14 09:12:00,14.0,10.0,-100.00,West,281,3.0,5.0,83,0.00,,,0.00,80.000000,,2013-03-14 13:12:00,
2013-03-14 09:32:00,14.0,10.0,-100.00,West,281,3.0,5.0,83,0.00,,,0.00,80.000000,,2013-03-14 13:32:00,
2013-03-14 09:43:00,14.0,10.0,-100.00,West,281,3.0,5.0,83,0.00,,,0.00,80.000000,,2013-03-14 13:43:00,
2013-03-14 09:52:00,14.0,10.0,-100.00,West,281,3.0,5.0,83,0.00,,,0.00,80.000000,,2013-03-14 13:52:00,
2013-03-14 10:02:00,14.0,10.0,-100.00,West,281,3.0,5.0,83,0.00,,,0.00,80.000000,,2013-03-14 14:02:00,
2013-03-14 10:12:00,21.0,13.0,-100.00,West,278,2.0,4.0,70,0.00,,,0.00,280.000000,,2013-03-14 14:12:00,
2013-03-14 10:42:00,21.0,13.0,-100.00,West,278,2.0,4.0,70,0.00,,,0.00,280.000000,,2013-03-14 14:42:00,
2013-03-14 10:53:00,21.0,13.0,-100.00,West,278,2.0,4.0,70,0.00,,,0.00,280.000000,,2013-03-14 14:53:00,
2013-03-14 11:02:00,21.0,13.0,-100.00,West,278,2.0,4.0,70,0.00,,,0.00,280.000000,,2013-03-14 15:02:00,
2013-03-14 11:12:00,27.0,15.0,-100.00,WSW,245,5.0,8.0,61,0.00,,,0.00,471.000000,,2013-03-14 15:12:00,
2013-03-14 11:33:00,27.0,15.0,-100.00,WSW,245,5.0,8.0,61,0.00,,,0.00,471.000000,,2013-03-14 15:33:00,
2013-03-14 11:43:00,27.0,15.0,-100.00,WSW,245,5.0,8.0,61,0.00,,,0.00,471.000000,,2013-03-14 15:43:00,
2013-03-14 11:52:00,27.0,15.0,-100.00,WSW,245,5.0,8.0,61,0.00,,,0.00,471.000000,,2013-03-14 15:52:00,
2013-03-14 12:03:00,27.0,15.0,-100.00,WSW,245,5.0,8.0,61,0.00,,,0.00,471.000000,,2013-03-14 16:03:00,
2013-03-14 12:12:00,33.0,13.0,-100.00,SW,215,4.0,8.0,44,0.00,,,0.00,625.000000,,2013-03-14 16:12:00,
2013-03-14 12:33:00,33.0,13.0,-100.00,SW,215,4.0,8.0,44,0.00,,,0.00,625.000000,,2013-03-14 16:33:00,
2013-03-14 12:42:00,33.0,13.0,-100.00,SW,215,4.0,8.0,44,0.00,,,0.00,625.000000,,2013-03-14 16:42:00,
2013-03-14 12:52:00,33.0,13.0,-100.00,SW,215,4.0,8.0,44,0.00,,,0.00,625.000000,,2013-03-14 16:52:00,
2013-03-14 13:02:00,33.0,13.0,-100.00,SW,215,4.0,8.0,44,0.00,,,0.00,625.000000,,2013-03-14 17:02:00,
2013-03-14 13:12:00,34.0,14.0,-100.00,West,265,4.0,10.0,43,0.00,,,-99.99,717.000000,,2013-03-14 17:12:00,
2013-03-14 13:33:00,34.0,14.0,-100.00,West,265,4.0,10.0,43,0.00,,,-99.99,717.000000,,2013-03-14 17:33:00,
2013-03-14 13:42:00,34.0,14.0,-100.00,West,265,4.0,10.0,43,0.00,,,-99.99,717.000000,,2013-03-14 17:42:00,
2013-03-14 13:52:00,34.0,14.0,-100.00,West,265,4.0,10.0,43,0.00,,,-99.99,717.000000,,2013-03-14 17:52:00,
2013-03-14 14:02:00,34.0,14.0,-100.00,West,265,4.0,10.0,43,0.00,,,-99.99,717.000000,,2013-03-14 18:02:00,
2013-03-14 14:12:00,38.0,14.0,-100.00,WSW,253,5.0,11.0,37,0.00,,,0.00,784.000000,,2013-03-14 18:12:00,
2013-03-14 14:33:00,38.0,14.0,-100.00,WSW,253,5.0,11.0,37,0.00,,,0.00,784.000000,,2013-03-14 18:33:00,
2013-03-14 14:43:00,38.0,14.0,-100.00,WSW,253,5.0,11.0,37,0.00,,,0.00,784.000000,,2013-03-14 18:43:00,
2013-03-14 14:52:00,38.0,14.0,-100.00,WSW,253,5.0,11.0,37,0.00,,,0.00,784.000000,,2013-03-14 18:52:00,
2013-03-14 15:03:00,38.0,14.0,-100.00,WSW,253,5.0,11.0,37,0.00,,,0.00,784.000000,,2013-03-14 19:03:00,
2013-03-14 16:12:00,41.0,12.0,-100.00,SW,222,6.0,13.0,30,-99.99,,,0.00,691.000000,,2013-03-14 20:12:00,
2013-03-14 16:42:00,41.0,12.0,-100.00,SW,222,6.0,13.0,30,-99.99,,,0.00,691.000000,,2013-03-14 20:42:00,
2013-03-14 16:52:00,41.0,12.0,-100.00,SW,222,6.0,13.0,30,-99.99,,,0.00,691.000000,,2013-03-14 20:52:00,
2013-03-14 17:02:00,41.0,12.0,-100.00,SW,222,6.0,13.0,30,-99.99,,,0.00,691.000000,,2013-03-14 21:02:00,
2013-03-14 17:12:00,40.0,10.0,-100.00,SW,233,7.0,14.0,28,0.00,,,0.00,556.000000,,2013-03-14 21:12:00,
2013-03-14 17:43:00,40.0,10.0,-100.00,SW,233,7.0,14.0,28,0.00,,,0.00,556.000000,,2013-03-14 21:43:00,
2013-03-14 17:53:00,40.0,10.0,-100.00,SW,233,7.0,14.0,28,0.00,,,0.00,556.000000,,2013-03-14 21:53:00,
2013-03-14 18:03:00,40.0,10.0,-100.00,SW,233,7.0,14.0,28,0.00,,,0.00,556.000000,,2013-03-14 22:03:00,
2013-03-14 18:12:00,39.0,9.0,-100.00,WSW,237,6.0,14.0,28,0.00,,,0.00,314.000000,,2013-03-14 22:12:00,
2013-03-14 18:42:00,39.0,9.0,-100.00,WSW,237,6.0,14.0,28,0.00,,,0.00,314.000000,,2013-03-14 22:42:00,
2013-03-14 18:52:00,39.0,9.0,-100.00,WSW,237,6.0,14.0,28,0.00,,,0.00,314.000000,,2013-03-14 22:52:00,
2013-03-14 19:02:00,39.0,9.0,-100.00,WSW,237,6.0,14.0,28,0.00,,,0.00,314.000000,,2013-03-14 23:02:00,
2013-03-14 19:12:00,37.0,10.0,-100.00,SW,236,4.0,11.0,32,0.00,,,0.00,126.000000,,2013-03-14 23:12:00,
2013-03-14 19:33:00,37.0,10.0,-100.00,SW,236,4.0,11.0,32,0.00,,,0.00,126.000000,,2013-03-14 23:33:00,
2013-03-14 19:43:00,37.0,10.0,-100.00,SW,236,4.0,11.0,32,0.00,,,0.00,126.000000,,2013-03-14 23:43:00,
2013-03-14 19:53:00,37.0,10.0,-100.00,SW,236,4.0,11.0,32,0.00,,,0.00,126.000000,,2013-03-14 23:53:00,
2013-03-14 20:02:00,37.0,10.0,-100.00,SW,236,4.0,11.0,32,0.00,,,0.00,126.000000,,2013-03-15 00:02:00,
2013-03-14 20:12:00,33.0,14.0,-100.00,WSW,242,2.0,8.0,46,0.00,,,0.00,14.000000,,2013-03-15 00:12:00,
2013-03-14 20:32:00,33.0,14.0,-100.00,WSW,242,2.0,8.0,46,0.00,,,0.00,14.000000,,2013-03-15 00:32:00,
2013-03-14 20:43:00,33.0,14.0,-100.00,WSW,242,2.0,8.0,46,0.00,,,0.00,14.000000,,2013-03-15 00:43:00,
2013-03-14 20:52:00,33.0,14.0,-100.00,WSW,242,2.0,8.0,46,0.00,,,0.00,14.000000,,2013-03-15 00:52:00,
2013-03-14 21:02:00,33.0,14.0,-100.00,WSW,242,2.0,8.0,46,0.00,,,0.00,14.000000,,2013-03-15 01:02:00,
2013-03-14 21:12:00,32.0,16.0,-100.00,SW,230,3.0,6.0,52,0.00,,,0.00,0.000000,,2013-03-15 01:12:00,
2013-03-14 21:33:00,32.0,16.0,-100.00,SW,230,3.0,6.0,52,0.00,,,0.00,0.000000,,2013-03-15 01:33:00,
2013-03-14 21:43:00,32.0,16.0,-100.00,SW,230,3.0,6.0,52,0.00,,,0.00,0.000000,,2013-03-15 01:43:00,
2013-03-14 21:52:00,32.0,16.0,-100.00,SW,230,3.0,6.0,52,0.00,,,0.00,0.000000,,2013-03-15 01:52:00,
2013-03-14 22:02:00,32.0,16.0,-100.00,SW,230,3.0,6.0,52,0.00,,,0.00,0.000000,,2013-03-15 02:02:00,
2013-03-14 22:12:00,33.0,19.0,-100.00,WSW,244,6.0,12.0,56,0.00,,,0.00,0.000000,,2013-03-15 02:12:00,
2013-03-14 22:32:00,33.0,19.0,-100.00,WSW,244,6.0,12.0,56,0.00,,,0.00,0.000000,,2013-03-15 02:32:00,
2013-03-14 22:42:00,33.0,19.0,-100.00,WSW,244,6.0,12.0,56,0.00,,,0.00,0.000000,,2013-03-15 02:42:00,
2013-03-14 22:52:00,33.0,19.0,-100.00,WSW,244,6.0,12.0,56,0.00,,,0.00,0.000000,,2013-03-15 02:52:00,
2013-03-14 23:02:00,33.0,19.0,-100.00,WSW,244,6.0,12.0,56,0.00,,,0.00,0.000000,,2013-03-15 03:02:00,
2013-03-14 23:12:00,33.0,21.0,-100.00,West,261,5.0,11.0,62,0.00,,,0.00,0.000000,,2013-03-15 03:12:00,
2013-03-14 23:33:00,33.0,21.0,-100.00,West,261,5.0,11.0,62,0.00,,,0.00,0.000000,,2013-03-15 03:33:00,
2013-03-14 23:43:00,33.0,21.0,-100.00,West,261,5.0,11.0,62,0.00,,,0.00,0.000000,,2013-03-15 03:43:00,
2013-03-14 23:53:00,33.0,21.0,-100.00,West,261,5.0,11.0,62,0.00,,,0.00,0.000000,,2013-03-15 03:53:00,